Weather History for Gwinn, MI

Change the Weather History Date:

Sunday, May 12, 2013

  Actual Average (KESC) Record (KESC)
Temperature  
Mean Temperature 34 °F -  
Max Temperature 37 °F 57 °F 71 °F (1991)
Min Temperature 30 °F 40 °F 28 °F (2013)
Degree Days  
Heating Degree Days 32    
Moisture  
Dew Point 26 °F    
Average Humidity 78    
Maximum Humidity 96    
Minimum Humidity 45    
Precipitation  
Precipitation 0.00 in - - ()
Sea Level Pressure  
Sea Level Pressure 29.96 in    
Wind  
Wind Speed 14 mph (NNW)    
Max Wind Speed 23 mph    
Max Gust Speed 30 mph    
Visibility 7 miles    
Events Snow    
Averages and records for this station are not official NWS values.
T = Trace of Precipitation, MM = Missing Value Source: NWS Daily Summary

Daily Weather History Graph

Daily Weather History Graph

Search for Another Location

Airport:

Trip Planner

Search our weather history database for the weather conditions in past years. The results will help you decide how hot, cold, wet, or windy it might be!

Date:

Astronomy

May. 12, 2013 Rise Set
Actual Time 6:19 AM EDT 9:12 PM EDT
Civil Twilight 5:44 AM EDT 9:48 PM EDT
Nautical Twilight 5:00 AM EDT 10:32 PM EDT
Astronomical Twilight 4:07 AM EDT 11:26 PM EDT
Moon 8:12 AM EDT (5/12) 11:41 PM EDT (5/12)
Length of Visible Light 16h 03m
Length of Day
14h 53m
Waxing Crescent, 6% of the Moon is Illuminated
May 12
Waxing Crescent
May 18
First Quarter
May 25
Full
May 31
Last Quarter
Jun 8
New

Hourly Weather History & Observations

Time (EDT) Temp. Windchill Dew Point Humidity Pressure Visibility Wind Dir Wind Speed Gust Speed Precip Events Conditions
12:17 AM 32.4 °F 23.0 °F 31.1 °F 95% 29.84 in 3.0 mi NNW 12.7 mph 18.4 mph N/A Snow Light Snow
12:37 AM 32.4 °F 22.1 °F 30.2 °F 92% 29.85 in 7.0 mi NNW 15.0 mph 24.2 mph N/A Snow Light Snow
12:56 AM 32.0 °F 21.2 °F 30.6 °F 94% 29.85 in 3.0 mi NNW 16.1 mph 21.9 mph N/A Snow Light Snow
1:17 AM 32.0 °F 22.1 °F 30.7 °F 95% 29.85 in 1.5 mi NW 13.8 mph 21.9 mph N/A Snow Light Snow
1:37 AM 32.0 °F 21.2 °F 30.7 °F 95% 29.85 in 1.8 mi NW 16.1 mph 19.6 mph N/A Snow Light Snow
1:56 AM 32.0 °F 21.2 °F 30.7 °F 95% 29.85 in 1.5 mi NNW 16.1 mph - N/A Snow Light Snow
2:17 AM 32.0 °F 22.1 °F 30.9 °F 96% 29.86 in 1.2 mi NNW 13.8 mph - N/A Snow Snow
2:37 AM 32.0 °F 21.2 °F 30.7 °F 95% 29.86 in 1.5 mi NNW 16.1 mph 24.2 mph N/A Snow Light Snow
2:57 AM 32.0 °F 22.1 °F 30.6 °F 94% 29.87 in 1.5 mi NNW 13.8 mph 23.0 mph N/A Snow Light Snow
3:17 AM 32.0 °F 21.2 °F 30.2 °F 93% 29.87 in 1.8 mi NNW 16.1 mph 25.3 mph N/A Snow Light Snow
3:36 AM 32.0 °F 21.6 °F 30.2 °F 93% 29.88 in 2.0 mi NNW 15.0 mph 25.3 mph N/A Snow Light Snow
3:57 AM 31.8 °F 21.4 °F 29.8 °F 92% 29.88 in 2.0 mi NNW 15.0 mph 25.3 mph N/A Snow Light Snow
4:16 AM 31.8 °F 21.4 °F 29.7 °F 92% 29.89 in 3.0 mi NNW 15.0 mph 27.6 mph N/A Snow Light Snow
4:37 AM 31.5 °F 20.5 °F 29.5 °F 92% 29.90 in 2.0 mi NNW 16.1 mph 25.3 mph N/A Snow Light Snow
4:57 AM 31.3 °F 19.9 °F 29.1 °F 92% 29.90 in 2.5 mi NNW 17.3 mph 29.9 mph N/A Snow Light Snow
5:17 AM 31.1 °F 18.6 °F 28.4 °F 90% 29.90 in 4.0 mi NNW 20.7 mph 25.3 mph N/A Snow Light Snow
5:37 AM 31.1 °F 19.3 °F 27.7 °F 87% 29.91 in 7.0 mi NNW 18.4 mph 29.9 mph N/A   Overcast
5:57 AM 30.9 °F 19.4 °F 27.1 °F 86% 29.91 in 10.0 mi NNW 17.3 mph 27.6 mph N/A   Overcast
6:50 AM 30.2 °F 19.3 °F 24.8 °F 80% 29.93 in 10.0 mi NNW 15.0 mph - N/A   Overcast
7:50 AM 30.2 °F 18.1 °F 24.8 °F 80% 29.94 in 10.0 mi NNW 18.4 mph 25.3 mph N/A   Overcast
8:50 AM 30.2 °F 18.5 °F 24.8 °F 80% 29.95 in 10.0 mi NNW 17.3 mph 21.9 mph N/A Snow Light Snow
9:50 AM 30.2 °F 21.3 °F 24.8 °F 80% 29.97 in 5.0 mi NNW 10.4 mph - N/A Snow Light Snow
10:50 AM 30.2 °F 19.3 °F 23.0 °F 75% 29.97 in 10.0 mi NNW 15.0 mph 28.8 mph N/A   Overcast
11:50 AM 32.0 °F 19.2 °F 24.8 °F 75% 29.99 in 10.0 mi NNW 23.0 mph 27.6 mph N/A   Overcast
12:50 PM 32.0 °F 21.2 °F 24.8 °F 75% 30.01 in 10.0 mi NNW 16.1 mph 27.6 mph N/A   Overcast
1:50 PM 33.8 °F 24.3 °F 24.8 °F 70% 30.01 in 10.0 mi NNW 13.8 mph 19.6 mph N/A   Overcast
2:50 PM 33.8 °F 22.5 °F 24.8 °F 70% 30.02 in 10.0 mi NNW 19.6 mph 29.9 mph N/A   Overcast
3:55 PM 33.8 °F 23.2 °F 23.0 °F 65% 30.02 in 10.0 mi NW 17.3 mph 25.3 mph N/A   Overcast
4:45 PM 35.6 °F 26.2 °F 24.8 °F 65% 30.03 in 10.0 mi NNW 15.0 mph 24.2 mph N/A   Overcast
5:55 PM 37.4 °F 28.2 °F 23.0 °F 56% 30.05 in 10.0 mi North 16.1 mph 23.0 mph N/A   Mostly Cloudy
6:55 PM 37.4 °F 27.8 °F 21.2 °F 52% 30.05 in 10.0 mi NNW 17.3 mph 26.5 mph N/A   Scattered Clouds
7:50 PM 37.4 °F 27.2 °F 17.6 °F 45% 30.05 in 10.0 mi NNW 19.6 mph 26.5 mph N/A   Scattered Clouds
8:50 PM 35.6 °F 29.2 °F 19.4 °F 52% 30.05 in 10.0 mi NNW 8.1 mph - N/A   Clear
9:50 PM 33.8 °F 28.6 °F 19.4 °F 56% 30.06 in 10.0 mi NNW 5.8 mph - N/A   Clear
10:17 PM 32.0 °F - 20.3 °F 62% 30.07 in 10.0 mi Calm Calm - N/A   Clear
10:37 PM 31.1 °F - 19.9 °F 63% 30.07 in 10.0 mi Calm Calm - N/A   Clear
10:56 PM 30.2 °F - 20.1 °F 66% 30.07 in 10.0 mi Calm Calm - N/A   Clear
11:17 PM 30.2 °F - 20.1 °F 66% 30.07 in 10.0 mi Calm Calm - N/A   Clear
11:37 PM 31.1 °F 25.4 °F 20.1 °F 64% 30.06 in 10.0 mi NW 5.8 mph - N/A   Clear
11:57 PM 30.9 °F 25.2 °F 20.3 °F 65% 30.06 in 10.0 mi NW 5.8 mph - N/A   Clear